[[{"header":{"parameterUnit":"m.s-1","parameterCategory":1,"la1":30.2991,"la2":30.254,"lo1":-89.0895,"lo2":-89.0444,"dy":0.0017,"dx":0.0017,"nx":28,"ny":28,"refTime":"2026-02-04T09:00:00:Z","depth":0,"parameterNumber":2,"parameterNumberName":"U-component_of_WINDS"},"data":[0,0,0,0,0,0,0,0,0,0,0,0,0,0,0,0,0,0,0,0,0,0,0,0,0,0,0,0,0,0,0,0,0,0,0,0,0,0,0,0,0,0,0,0,0,0,0,0,0,0,0,0,0,0,0,0,0,0,2.7581,2.7581,0,2.7592,2.7593,2.7593,2.7559,2.7558,2.7557,2.7556,2.7568,2.7569,2.757,0,0,0,0,0,0,0,0,0,0,0,0,0,2.7532,2.7533,2.7581,2.7581,2.7581,2.7592,2.7593,2.7593,2.756,2.7558,2.7557,2.7556,2.7567,2.7569,2.757,0,0,0,0,0,0,0,0,0,0,0,0,0,2.7549,2.7533,2.7581,2.7566,2.7565,2.7592,2.7593,2.7593,2.756,2.7558,2.7557,2.7555,2.7567,2.7569,2.7571,2.7613,0,0,2.7576,2.7577,0,0,0,0,0,0,0,0,2.7548,2.7551,2.7568,2.7567,2.7566,2.7573,2.7579,2.76,2.756,2.7562,2.7556,2.7555,2.7571,2.7572,2.7578,2.7613,2.7614,2.7576,2.7578,2.7578,2.7579,0,0,0,0,0,0,0,2.7547,2.755,2.7586,2.7568,2.7567,2.7559,2.756,2.7583,2.7575,2.7562,2.7559,2.7561,2.757,2.7576,2.7578,2.7614,2.7576,2.7578,2.7579,2.758,2.7687,2.7689,0,0,0,0,0,0,2.7548,2.7549,2.7585,2.7586,2.7553,2.7561,2.7562,2.7572,2.7574,2.7573,2.7562,2.7559,2.7573,2.7576,2.7578,2.7629,2.7578,2.758,2.7581,2.7685,2.7687,2.7689,0,0,0,0,0,0,2.7547,2.7551,2.7585,2.7567,2.7571,2.7564,2.7575,2.7573,2.7579,2.7575,2.7573,2.757,2.7572,2.7575,2.7605,2.7628,2.7581,2.7583,2.7683,2.7686,2.7688,2.773,0,0,0,0,0,0,2.7545,2.7551,2.7567,2.7568,2.7572,2.7611,2.7577,2.7575,2.7583,2.7579,2.7582,2.7581,2.7571,2.7602,2.7607,2.763,2.7584,2.7681,2.7684,2.7687,2.7726,2.7733,2.774,0,0,0,0,0,2.7544,2.7577,2.7567,2.7572,2.7591,2.7613,2.7615,2.7604,2.7585,2.7601,2.7598,2.7581,2.7625,2.7606,2.761,2.7635,2.768,2.7683,2.7687,2.7723,2.7732,2.7739,0,0,0,0,0,0,2.7578,2.7577,2.7566,2.7601,2.7607,2.7607,2.7626,2.7613,2.7624,2.762,2.7606,2.7607,2.7639,2.764,2.7618,2.7677,2.7649,2.7654,2.7675,2.7683,2.769,2.7689,2.7586,0,0,0,0,0,2.759,2.7608,2.7605,2.7636,2.764,2.7633,2.7642,2.7633,2.7639,2.7641,2.764,2.7647,2.7663,2.7673,2.7687,2.7727,2.7727,2.7746,2.7753,2.7758,2.7762,2.7785,2.7793,2.7702,2.7702,2.7702,0,0,2.7614,2.7616,2.7627,2.7644,2.7647,2.7666,2.7635,2.7656,2.767,2.7644,2.7672,2.7672,2.7679,2.7714,2.7729,2.7715,2.7788,2.7763,2.7767,2.7769,2.779,2.7798,2.7806,2.7704,2.7704,2.7704,0,0,2.7668,2.7671,2.7697,2.7702,2.7709,2.7704,2.7711,2.7713,2.7713,2.7741,2.7722,2.7739,2.7766,2.7771,2.7778,2.7837,2.7821,2.7842,2.7876,2.7898,2.7906,2.7912,2.7934,2.7941,2.7846,2.7846,2.7846,0,2.7697,2.7725,2.7713,2.7736,2.7744,2.7722,2.775,2.7755,2.7766,2.7772,2.7756,2.7791,2.7794,2.783,2.7845,2.7851,2.7859,2.7841,2.7905,2.7912,2.7917,2.7938,2.7946,2.7849,2.7848,2.7848,2.7848,0,2.7761,2.778,2.7801,2.7813,2.7824,2.7849,2.7841,2.7854,2.7844,2.7842,2.7872,2.7874,2.7889,2.7897,2.7888,2.7934,2.7925,2.7908,2.788,2.7929,2.7948,2.7956,2.7852,2.7851,2.7851,2.785,0,0,2.7835,2.7842,2.7849,2.7855,2.7862,2.7877,2.7902,2.7917,2.7928,2.7937,2.7958,2.7982,2.7967,2.7975,2.7966,2.7985,2.8033,2.7966,2.7966,2.7979,2.8085,2.8098,2.8107,2.8023,2.8025,2.8026,2.8084,0,2.7888,2.7931,2.7922,2.7964,2.7982,2.7963,2.7985,2.7992,2.7991,2.8007,2.8005,2.8023,2.8001,2.8006,2.8024,2.8023,2.8054,2.8019,2.8043,2.8044,2.8042,2.8117,2.813,2.8185,2.8092,2.8093,2.8094,0,2.7956,2.7968,2.8012,2.8018,2.8025,2.8045,2.8059,2.8075,2.8083,2.8081,2.809,2.8079,2.8104,2.8077,2.8112,2.8088,2.8098,2.8099,2.8101,2.8103,2.8072,2.812,2.8202,2.821,2.8105,2.8104,2.8104,0,2.8006,2.8034,2.8064,2.807,2.8077,2.8091,2.8095,2.8102,2.8112,2.8125,2.8132,2.8147,2.8155,2.8168,2.8161,2.8142,2.8198,2.817,2.8198,2.8198,2.821,2.8209,2.8294,2.8216,2.8216,2.8216,2.8216,0,2.8067,2.8095,2.8087,2.8106,2.8137,2.8127,2.8158,2.816,2.8166,2.8185,2.817,2.8188,2.8178,2.8196,2.8191,2.8222,2.8226,2.8225,2.8223,2.8226,2.8227,2.8232,2.8228,2.8218,2.8218,2.8217,2.8217,0,2.8128,2.8124,2.8156,2.8161,2.8163,2.8186,2.819,2.8208,2.8206,2.8231,2.8236,2.8233,2.8254,2.8249,2.827,2.8267,2.8306,2.83,2.8304,2.8302,2.833,2.8328,2.8422,2.8434,2.8348,2.8349,2.835,0,2.8167,2.8188,2.8196,2.8208,2.8213,2.8232,2.8243,2.8235,2.8247,2.8259,2.8276,2.8295,2.831,2.8343,2.8344,2.8361,2.8355,2.8387,2.8357,2.836,2.8356,2.8355,2.8357,2.8392,2.8393,2.8394,2.8395,0,2.8236,2.8234,2.825,2.8267,2.8281,2.8293,2.8304,2.8315,2.8308,2.8322,2.8343,2.8355,2.8379,2.8398,2.8414,2.8418,2.8406,2.8404,2.8411,2.8415,2.8416,2.8416,2.832,2.8402,2.8401,2.84,2.84,2.84,2.8287,2.8306,2.8315,2.8334,2.8342,2.8353,2.8371,2.8372,2.839,2.8408,2.8403,2.8427,2.8436,2.8457,2.8463,2.8483,2.8471,2.8481,2.8484,2.8487,2.849,2.8414,2.8486,2.8485,2.8485,2.8485,2.8485,0,2.8357,2.8362,2.838,2.8397,2.8412,2.84,2.8412,2.8426,2.8448,2.8458,2.8473,2.8498,2.8518,2.852,2.8539,2.8554,2.8549,2.8559,2.8558,2.8559,2.85,2.8492,2.8563,2.8563,2.8563,2.8563,2.8563,2.8563,2.8394,2.8426,2.8425,2.846,2.8465,2.8489,2.8497,2.8508,2.8516,2.8545,2.8561,2.8563,2.8571,2.859,2.8608,2.8608,2.8616,2.8629,2.8627,2.8571,2.8563,2.8556,2.8548,2.8631,2.8631,2.8685,2.8686,2.8686]},{"header":{"parameterUnit":"m.s-1","parameterCategory":1,"la1":30.2991,"la2":30.254,"lo1":-89.0895,"lo2":-89.0444,"dy":0.0017,"dx":0.0017,"nx":28,"ny":28,"refTime":"2026-02-04T09:00:00:Z","depth":0,"parameterNumber":3,"parameterNumberName":"V-component_of_WINDS"},"data":[0,0,0,0,0,0,0,0,0,0,0,0,0,0,0,0,0,0,0,0,0,0,0,0,0,0,0,0,0,0,0,0,0,0,0,0,0,0,0,0,0,0,0,0,0,0,0,0,0,0,0,0,0,0,0,0,0,0,-6.7663,-6.7665,0,-6.7781,-6.7783,-6.7784,-6.7748,-6.7746,-6.7744,-6.7741,-6.7855,-6.786,-6.7865,0,0,0,0,0,0,0,0,0,0,0,0,0,-6.7403,-6.7408,-6.7663,-6.7665,-6.7666,-6.7781,-6.7783,-6.7784,-6.7749,-6.7746,-6.7743,-6.774,-6.7853,-6.786,-6.7866,0,0,0,0,0,0,0,0,0,0,0,0,0,-6.7518,-6.741,-6.7663,-6.7663,-6.7664,-6.7781,-6.7783,-6.7785,-6.7749,-6.7746,-6.7742,-6.7739,-6.7851,-6.7859,-6.7867,-6.7989,0,0,-6.7891,-6.7895,0,0,0,0,0,0,0,0,-6.7511,-6.7527,-6.7661,-6.7663,-6.7664,-6.7747,-6.7732,-6.7853,-6.775,-6.7717,-6.7741,-6.7737,-6.7821,-6.7832,-6.7861,-6.7994,-6.7999,-6.7892,-6.7897,-6.79,-6.7902,0,0,0,0,0,0,0,-6.7503,-6.7522,-6.771,-6.7663,-6.7665,-6.7655,-6.7667,-6.7755,-6.7788,-6.7719,-6.7717,-6.7732,-6.7821,-6.7854,-6.7864,-6.8001,-6.7892,-6.7899,-6.7904,-6.7907,-6.8242,-6.8246,0,0,0,0,0,0,-6.7495,-6.7516,-6.7706,-6.7713,-6.7578,-6.7663,-6.7676,-6.7724,-6.7787,-6.7793,-6.7735,-6.773,-6.7842,-6.7855,-6.7868,-6.8017,-6.79,-6.7907,-6.7912,-6.8238,-6.8243,-6.8247,0,0,0,0,0,0,-6.749,-6.7512,-6.7701,-6.7614,-6.7637,-6.7671,-6.7724,-6.7728,-6.776,-6.7799,-6.7804,-6.7762,-6.784,-6.7857,-6.796,-6.802,-6.7911,-6.7918,-6.8233,-6.8239,-6.8245,-6.8314,0,0,0,0,0,0,-6.7482,-6.7511,-6.7559,-6.7615,-6.7642,-6.7793,-6.7728,-6.7733,-6.7775,-6.777,-6.7826,-6.7832,-6.7838,-6.7949,-6.7968,-6.8029,-6.7924,-6.8228,-6.8236,-6.8243,-6.8307,-6.8322,-6.8335,0,0,0,0,0,-6.7473,-6.7571,-6.7561,-6.7584,-6.7703,-6.7797,-6.7812,-6.7819,-6.778,-6.7828,-6.7853,-6.783,-6.801,-6.7959,-6.7981,-6.8045,-6.8224,-6.8234,-6.8243,-6.8301,-6.8319,-6.8335,0,0,0,0,0,0,-6.7517,-6.7579,-6.7568,-6.7688,-6.7738,-6.7791,-6.7851,-6.7839,-6.7899,-6.7891,-6.7895,-6.7909,-6.8015,-6.804,-6.7982,-6.8168,-6.8111,-6.8125,-6.8148,-6.8166,-6.818,-6.8171,-6.7931,0,0,0,0,0,-6.7542,-6.7615,-6.7663,-6.7764,-6.7791,-6.7817,-6.7858,-6.786,-6.7911,-6.7931,-6.7963,-6.8012,-6.808,-6.8124,-6.8188,-6.831,-6.8322,-6.8365,-6.838,-6.8391,-6.8403,-6.8471,-6.8491,-6.8278,-6.8278,-6.8278,0,0,-6.7591,-6.7634,-6.7679,-6.7775,-6.7813,-6.7888,-6.7835,-6.7915,-6.797,-6.7942,-6.8043,-6.8069,-6.8123,-6.8237,-6.8289,-6.8262,-6.8465,-6.8403,-6.8412,-6.8418,-6.8483,-6.8503,-6.8521,-6.8284,-6.8283,-6.8282,0,0,-6.7721,-6.776,-6.785,-6.7891,-6.7952,-6.7969,-6.7991,-6.8046,-6.8063,-6.8165,-6.8147,-6.8211,-6.8327,-6.8368,-6.8404,-6.8551,-6.8533,-6.8572,-6.8646,-6.8712,-6.8729,-6.8744,-6.8797,-6.8816,-6.8584,-6.8584,-6.8584,0,-6.7774,-6.7888,-6.7896,-6.798,-6.8023,-6.8004,-6.8095,-6.8133,-6.8211,-6.824,-6.8209,-6.8357,-6.8392,-6.8516,-6.8552,-6.8581,-6.8606,-6.8565,-6.8726,-6.8741,-6.8755,-6.8806,-6.8826,-6.8588,-6.8588,-6.8587,-6.8587,0,-6.7951,-6.803,-6.8095,-6.8174,-6.8224,-6.831,-6.8331,-6.838,-6.8379,-6.8399,-6.8503,-6.8545,-6.8619,-6.8648,-6.8646,-6.8773,-6.8754,-6.8725,-6.8668,-6.878,-6.8828,-6.8848,-6.8595,-6.8593,-6.8592,-6.8591,0,0,-6.811,-6.8196,-6.8219,-6.8256,-6.8323,-6.8383,-6.8469,-6.8544,-6.8586,-6.864,-6.8712,-6.8813,-6.8787,-6.8827,-6.8829,-6.8887,-6.9003,-6.8851,-6.8852,-6.8878,-6.9147,-6.917,-6.9192,-6.8992,-6.8995,-6.8998,-6.9143,0,-6.8245,-6.8399,-6.8411,-6.8548,-6.8622,-6.8607,-6.8681,-6.873,-6.8751,-6.8816,-6.8838,-6.891,-6.887,-6.8895,-6.8952,-6.8977,-6.9057,-6.8967,-6.9057,-6.9061,-6.9045,-6.9217,-6.9241,-6.9375,-6.9162,-6.9165,-6.9167,0,-6.8424,-6.8488,-6.8634,-6.8693,-6.8724,-6.8791,-6.8862,-6.8924,-6.8979,-6.899,-6.9038,-6.9032,-6.9119,-6.906,-6.9179,-6.9118,-6.9155,-6.9174,-6.9179,-6.9188,-6.9121,-6.9231,-6.9418,-6.9438,-6.9197,-6.9194,-6.9192,0,-6.8527,-6.8649,-6.8753,-6.8784,-6.8855,-6.8903,-6.8934,-6.8986,-6.9031,-6.9092,-6.9121,-6.919,-6.9228,-6.9282,-6.9295,-6.925,-6.9415,-6.9356,-6.9426,-6.9426,-6.9462,-6.9459,-6.9658,-6.9485,-6.9485,-6.9485,-6.9484,0,-6.8677,-6.8767,-6.88,-6.8864,-6.8965,-6.8977,-6.9076,-6.9104,-6.915,-6.9218,-6.9208,-6.9272,-6.9285,-6.9352,-6.9362,-6.946,-6.9477,-6.9488,-6.949,-6.949,-6.9489,-6.9515,-6.9506,-6.949,-6.9489,-6.9488,-6.9487,0,-6.8809,-6.8834,-6.8947,-6.9006,-6.9023,-6.9095,-6.9145,-6.9206,-6.9227,-6.9314,-6.9335,-6.9368,-6.9445,-6.9464,-6.9555,-6.9563,-6.9679,-6.9672,-6.9662,-6.9662,-6.9732,-6.9725,-6.9954,-6.9985,-6.9792,-6.9793,-6.9795,0,-6.8903,-6.8973,-6.9041,-6.9088,-6.9123,-6.9197,-6.9244,-6.9259,-6.9308,-6.9377,-6.943,-6.9507,-6.9569,-6.9694,-6.9725,-6.9795,-6.9789,-6.9865,-6.98,-6.9798,-6.9792,-6.9788,-6.9795,-6.9877,-6.9879,-6.9881,-6.9882,0,-6.9069,-6.9079,-6.9149,-6.9224,-6.9281,-6.934,-6.9396,-6.9434,-6.9456,-6.9512,-6.9593,-6.9642,-6.9738,-6.9814,-6.9886,-6.9916,-6.9903,-6.9903,-6.9923,-6.9923,-6.9916,-6.9922,-6.9697,-6.9897,-6.9896,-6.9895,-6.9894,-6.9893,-6.9186,-6.9248,-6.9307,-6.9385,-6.943,-6.9483,-6.9544,-6.9575,-6.9644,-6.9725,-6.9728,-6.9817,-6.9871,-6.9966,-7.0001,-7.0069,-7.0046,-7.0075,-7.0082,-7.0089,-7.0096,-6.9905,-7.0082,-7.0081,-7.0081,-7.0081,-7.008,0,-6.9352,-6.939,-6.9462,-6.9543,-6.9605,-6.959,-6.9652,-6.9704,-6.9783,-6.9836,-6.9899,-6.9993,-7.0068,-7.0106,-7.018,-7.0227,-7.0223,-7.0246,-7.0243,-7.0251,-7.0112,-7.0088,-7.0248,-7.0248,-7.0248,-7.0248,-7.0248,-7.0248,-6.9446,-6.9551,-6.9568,-6.9695,-6.9732,-6.9821,-6.9858,-6.9907,-6.995,-7.0056,-7.012,-7.0145,-7.0192,-7.027,-7.0338,-7.0347,-7.0375,-7.0401,-7.0407,-7.0277,-7.026,-7.0244,-7.0221,-7.0407,-7.0407,-7.054,-7.0541,-7.0542]}]]